[[{"header":{"parameterUnit":"m.s-1","parameterCategory":1,"la1":30.2991,"la2":30.254,"lo1":-89.0895,"lo2":-89.0444,"dy":0.0017,"dx":0.0017,"nx":28,"ny":28,"refTime":"2024-02-11T09:00:00:Z","depth":0,"parameterNumber":2,"parameterNumberName":"U-component_of_WINDS"},"data":[0,0,0,0,0,0,0,0,0,0,0,0,0,0,0,0,0,0,0,0,0,0,0,0,0,0,0,0,0,0,0,0,0,0,0,0,0,0,0,0,0,0,0,0,0,0,0,0,0,0,0,0,0,0,0,0,0,0,6.5184,6.5186,0,6.5332,6.5333,6.5335,6.5278,6.5275,6.5272,6.5268,6.542,6.5427,6.5434,0,0,0,0,0,0,0,0,0,0,0,0,0,6.4856,6.4862,6.5184,6.5186,6.5188,6.5331,6.5334,6.5336,6.5279,6.5275,6.5271,6.5267,6.5418,6.5426,6.5435,0,0,0,0,0,0,0,0,0,0,0,0,0,6.5,6.4864,6.5184,6.5177,6.5178,6.5331,6.5334,6.5336,6.528,6.5275,6.527,6.5265,6.5415,6.5425,6.5436,6.5605,0,0,6.5469,6.5474,0,0,0,0,0,0,0,0,6.4992,6.5012,6.5176,6.5178,6.5179,6.5281,6.5273,6.5426,6.5281,6.5241,6.5268,6.5262,6.5378,6.5392,6.543,6.5612,6.5619,6.547,6.5477,6.5481,6.5484,0,0,0,0,0,0,0,6.4982,6.5006,6.5243,6.5179,6.518,6.5167,6.5182,6.5302,6.5336,6.5244,6.524,6.5259,6.5378,6.542,6.5434,6.5621,6.547,6.5479,6.5486,6.549,6.5951,6.5956,0,0,0,0,0,0,6.4971,6.4998,6.5238,6.5247,6.5071,6.5177,6.5194,6.5254,6.5335,6.5342,6.5263,6.5255,6.5404,6.5421,6.5439,6.5643,6.5481,6.5491,6.5497,6.5945,6.5952,6.5958,0,0,0,0,0,0,6.4965,6.4993,6.5232,6.5121,6.5151,6.5188,6.5256,6.5259,6.5301,6.5349,6.5355,6.53,6.5401,6.5424,6.5565,6.5648,6.5496,6.5506,6.5938,6.5947,6.5955,6.6053,0,0,0,0,0,0,6.4955,6.4991,6.5055,6.5123,6.5157,6.5355,6.5261,6.5266,6.532,6.5312,6.5385,6.5392,6.5399,6.5549,6.5575,6.566,6.5514,6.5931,6.5942,6.5952,6.6043,6.6064,6.6082,0,0,0,0,0,6.4944,6.5077,6.5059,6.5088,6.5238,6.536,6.5379,6.5383,6.5327,6.5392,6.5423,6.539,6.5634,6.5564,6.5593,6.5682,6.5926,6.5939,6.5952,6.6034,6.606,6.6082,0,0,0,0,0,0,6.5017,6.5085,6.5066,6.5225,6.5287,6.535,6.5432,6.5411,6.549,6.5479,6.5481,6.5498,6.5644,6.5677,6.5597,6.5851,6.5772,6.5791,6.5824,6.5849,6.5869,6.5858,6.5523,0,0,0,0,0,6.5052,6.5145,6.52,6.5335,6.5367,6.5395,6.5448,6.5446,6.551,6.5536,6.5577,6.5641,6.5733,6.5793,6.5879,6.6047,6.6063,6.6123,6.6143,6.6159,6.6176,6.6269,6.6297,6.6001,6.6001,6.6,0,0,6.5125,6.5173,6.5232,6.5351,6.5398,6.5496,6.5417,6.5522,6.5595,6.5552,6.5688,6.5721,6.5793,6.5949,6.6019,6.5981,6.6261,6.6176,6.6188,6.6196,6.6285,6.6313,6.6338,6.6009,6.6008,6.6006,0,0,6.5307,6.5352,6.5471,6.5521,6.5594,6.5612,6.5641,6.5707,6.5728,6.5864,6.5835,6.5921,6.6078,6.6131,6.6178,6.6383,6.6356,6.6411,6.6515,6.6605,6.6629,6.6649,6.6724,6.675,6.6427,6.6428,6.6428,0,6.5388,6.5532,6.5534,6.5643,6.5697,6.5663,6.5783,6.5832,6.593,6.5968,6.5924,6.6121,6.6167,6.6336,6.6386,6.6425,6.6459,6.6403,6.6625,6.6646,6.6665,6.6736,6.6764,6.6434,6.6433,6.6433,6.6432,0,6.5629,6.573,6.5817,6.5913,6.5977,6.6091,6.6111,6.6175,6.6168,6.6191,6.6331,6.6385,6.6483,6.6523,6.6517,6.6692,6.6666,6.6623,6.6544,6.67,6.6766,6.6793,6.6443,6.6441,6.6439,6.6437,0,0,6.5861,6.5958,6.599,6.6034,6.6113,6.6192,6.6305,6.6401,6.6457,6.6526,6.6622,6.6756,6.6718,6.6772,6.6772,6.6852,6.7012,6.68,6.6802,6.6838,6.721,6.7241,6.7272,6.6995,6.7,6.7004,6.7204,0,6.605,6.6248,6.6254,6.6436,6.653,6.6501,6.6599,6.666,6.6684,6.6769,6.6796,6.6892,6.6834,6.6866,6.6944,6.6976,6.7087,6.6962,6.7085,6.7089,6.7068,6.7307,6.7341,6.7527,6.723,6.7234,6.7237,0,6.6297,6.6375,6.6566,6.6634,6.6674,6.6762,6.6852,6.6932,6.7,6.7013,6.7074,6.7063,6.718,6.7096,6.7258,6.7173,6.7224,6.7248,6.7255,6.7267,6.7173,6.7326,6.7586,6.7614,6.7278,6.7275,6.7272,0,6.6448,6.6601,6.6736,6.6774,6.6856,6.692,6.6957,6.702,6.7078,6.7156,6.7194,6.7284,6.7334,6.7405,6.7419,6.7357,6.7582,6.7499,6.7596,6.7596,6.7645,6.7642,6.7917,6.7677,6.7677,6.7676,6.7676,0,6.6659,6.6778,6.6805,6.6888,6.7021,6.7027,6.7158,6.719,6.7247,6.7337,6.7316,6.7401,6.7413,6.7501,6.7513,6.7646,6.7669,6.7683,6.7685,6.7685,6.7684,6.7719,6.7706,6.7684,6.7682,6.768,6.7679,0,6.6851,6.6874,6.7019,6.7085,6.7104,6.7199,6.7256,6.7336,6.7359,6.7473,6.75,6.7537,6.7639,6.766,6.7781,6.7789,6.7948,6.7936,6.7925,6.7924,6.8021,6.8012,6.8329,6.8371,6.8102,6.8105,6.8107,0,6.6984,6.7075,6.7151,6.721,6.725,6.7345,6.7404,6.7414,6.7476,6.7562,6.7632,6.7732,6.7813,6.7979,6.8017,6.811,6.8101,6.8206,6.8115,6.8113,6.8104,6.8099,6.8108,6.8223,6.8226,6.8228,6.823,0,6.722,6.7227,6.7312,6.7403,6.7475,6.7546,6.7615,6.7664,6.7683,6.7755,6.7859,6.7922,6.8047,6.8147,6.8241,6.828,6.826,6.8259,6.8286,6.8288,6.8278,6.8286,6.7973,6.8252,6.8249,6.8248,6.8247,6.8246,6.7387,6.7467,6.7533,6.763,6.7683,6.7747,6.7826,6.786,6.7947,6.8049,6.805,6.8165,6.8232,6.8356,6.8401,6.8491,6.8459,6.8498,6.8509,6.8518,6.8528,6.8264,6.8508,6.8508,6.8507,6.8507,6.8506,0,6.7622,6.7664,6.7753,6.7849,6.7926,6.79,6.7974,6.804,6.8142,6.8206,6.8287,6.8408,6.8506,6.8552,6.8649,6.8712,6.8706,6.8738,6.8733,6.8743,6.8551,6.8518,6.8742,6.8742,6.8742,6.8742,6.8741,6.8741,6.7753,6.7887,6.7903,6.8063,6.8104,6.8217,6.8262,6.8322,6.8373,6.851,6.8591,6.862,6.8678,6.8779,6.8868,6.8879,6.8916,6.8953,6.896,6.878,6.8756,6.8733,6.8702,6.8961,6.8961,6.9144,6.9146,6.9147]},{"header":{"parameterUnit":"m.s-1","parameterCategory":1,"la1":30.2991,"la2":30.254,"lo1":-89.0895,"lo2":-89.0444,"dy":0.0017,"dx":0.0017,"nx":28,"ny":28,"refTime":"2024-02-11T09:00:00:Z","depth":0,"parameterNumber":3,"parameterNumberName":"V-component_of_WINDS"},"data":[0,0,0,0,0,0,0,0,0,0,0,0,0,0,0,0,0,0,0,0,0,0,0,0,0,0,0,0,0,0,0,0,0,0,0,0,0,0,0,0,0,0,0,0,0,0,0,0,0,0,0,0,0,0,0,0,0,0,-4.8346,-4.8347,0,-4.8468,-4.8469,-4.8471,-4.8458,-4.8456,-4.8454,-4.8452,-4.8575,-4.858,-4.8585,0,0,0,0,0,0,0,0,0,0,0,0,0,-4.8101,-4.8105,-4.8346,-4.8348,-4.8349,-4.8468,-4.847,-4.8471,-4.8458,-4.8456,-4.8453,-4.8451,-4.8574,-4.858,-4.8586,0,0,0,0,0,0,0,0,0,0,0,0,0,-4.8213,-4.8107,-4.8346,-4.8357,-4.8359,-4.8468,-4.847,-4.8472,-4.8458,-4.8455,-4.8453,-4.845,-4.8572,-4.8579,-4.8587,-4.8692,0,0,-4.861,-4.8613,0,0,0,0,0,0,0,0,-4.8207,-4.8222,-4.8354,-4.8356,-4.8359,-4.8445,-4.8428,-4.8545,-4.8459,-4.8421,-4.8452,-4.8448,-4.8534,-4.8545,-4.8574,-4.8698,-4.8703,-4.8611,-4.8615,-4.8619,-4.8621,0,0,0,0,0,0,0,-4.8199,-4.8217,-4.8394,-4.8356,-4.8359,-4.8355,-4.8368,-4.845,-4.8492,-4.8424,-4.8423,-4.8438,-4.8535,-4.8567,-4.8577,-4.8705,-4.8611,-4.8617,-4.8622,-4.8625,-4.8921,-4.8924,0,0,0,0,0,0,-4.8189,-4.8211,-4.839,-4.8398,-4.8274,-4.8362,-4.8376,-4.842,-4.8491,-4.8499,-4.844,-4.8437,-4.8555,-4.8568,-4.8581,-4.8709,-4.8619,-4.8626,-4.863,-4.8918,-4.8922,-4.8925,0,0,0,0,0,0,-4.8184,-4.8205,-4.8385,-4.8304,-4.8327,-4.8369,-4.8418,-4.8424,-4.8455,-4.8504,-4.8511,-4.8465,-4.8553,-4.857,-4.8665,-4.8713,-4.8629,-4.8636,-4.8914,-4.8919,-4.8923,-4.8965,0,0,0,0,0,0,-4.8177,-4.8203,-4.8244,-4.8305,-4.8331,-4.8467,-4.8421,-4.8428,-4.8469,-4.8466,-4.8529,-4.8536,-4.8552,-4.8653,-4.8672,-4.8722,-4.8642,-4.891,-4.8916,-4.8922,-4.896,-4.8971,-4.8981,0,0,0,0,0,-4.8168,-4.825,-4.8246,-4.8268,-4.8383,-4.847,-4.8485,-4.8502,-4.8473,-4.8514,-4.8545,-4.8534,-4.8705,-4.8663,-4.8684,-4.8737,-4.8907,-4.8914,-4.8921,-4.8955,-4.8969,-4.898,0,0,0,0,0,0,-4.8193,-4.8259,-4.8254,-4.8359,-4.8409,-4.8468,-4.852,-4.8516,-4.8575,-4.857,-4.8588,-4.8602,-4.8697,-4.8727,-4.8679,-4.8842,-4.8802,-4.8814,-4.882,-4.8833,-4.8844,-4.8834,-4.8648,0,0,0,0,0,-4.8211,-4.8277,-4.833,-4.8417,-4.8443,-4.8477,-4.8516,-4.8525,-4.8577,-4.8598,-4.8636,-4.8687,-4.8752,-4.8794,-4.8857,-4.8964,-4.8977,-4.9011,-4.9021,-4.9029,-4.9039,-4.9098,-4.9114,-4.8949,-4.8949,-4.8949,0,0,-4.8248,-4.8292,-4.8332,-4.8424,-4.8463,-4.8531,-4.8495,-4.8568,-4.8618,-4.8609,-4.87,-4.873,-4.8788,-4.8889,-4.8936,-4.8916,-4.9088,-4.9039,-4.9045,-4.9051,-4.9108,-4.9123,-4.9137,-4.8954,-4.8953,-4.8953,0,0,-4.835,-4.839,-4.8468,-4.8508,-4.8569,-4.8592,-4.861,-4.867,-4.8689,-4.8781,-4.8776,-4.8836,-4.8947,-4.8989,-4.9025,-4.9144,-4.9136,-4.9163,-4.9218,-4.9275,-4.9288,-4.93,-4.9342,-4.9357,-4.9173,-4.9173,-4.9174,0,-4.8389,-4.8491,-4.8508,-4.8581,-4.8622,-4.8617,-4.8696,-4.8734,-4.8812,-4.884,-4.8818,-4.8958,-4.8997,-4.9108,-4.9137,-4.9166,-4.9187,-4.9156,-4.9285,-4.9297,-4.9308,-4.9348,-4.9364,-4.9176,-4.9176,-4.9176,-4.9175,0,-4.8535,-4.8606,-4.8661,-4.8737,-4.8783,-4.8859,-4.8887,-4.8932,-4.8937,-4.8962,-4.9056,-4.9102,-4.9174,-4.9201,-4.9206,-4.9313,-4.9299,-4.9281,-4.924,-4.9326,-4.9365,-4.938,-4.9181,-4.9179,-4.9179,-4.9178,0,0,-4.8656,-4.8741,-4.8761,-4.8796,-4.8863,-4.8918,-4.8993,-4.9064,-4.9102,-4.9156,-4.922,-4.9314,-4.9298,-4.9339,-4.9349,-4.9399,-4.949,-4.9374,-4.9376,-4.9394,-4.9611,-4.9624,-4.9642,-4.9486,-4.9489,-4.9491,-4.9606,0,-4.8765,-4.8899,-4.8917,-4.9035,-4.9101,-4.9098,-4.9163,-4.9212,-4.9237,-4.9296,-4.9323,-4.939,-4.9363,-4.9388,-4.9438,-4.9468,-4.9534,-4.946,-4.9545,-4.9548,-4.953,-4.9662,-4.9676,-4.9782,-4.9621,-4.9623,-4.9625,0,-4.891,-4.8969,-4.9094,-4.9153,-4.9181,-4.9239,-4.9306,-4.9362,-4.9417,-4.9432,-4.9477,-4.9481,-4.9559,-4.9515,-4.9623,-4.9572,-4.9608,-4.9628,-4.9633,-4.9641,-4.9591,-4.9674,-4.9816,-4.9832,-4.9649,-4.9647,-4.9645,0,-4.8987,-4.9097,-4.9186,-4.9216,-4.9286,-4.9327,-4.9358,-4.941,-4.9452,-4.951,-4.9537,-4.9603,-4.9639,-4.969,-4.9712,-4.9678,-4.9818,-4.9776,-4.9832,-4.9832,-4.9861,-4.9859,-5.0012,-4.9885,-4.9884,-4.9884,-4.9884,0,-4.9106,-4.9183,-4.9221,-4.9276,-4.9362,-4.9381,-4.9465,-4.9495,-4.9541,-4.9602,-4.9603,-4.9659,-4.9684,-4.9745,-4.9762,-4.9848,-4.9865,-4.9879,-4.9882,-4.9879,-4.9877,-4.9902,-4.9895,-4.9888,-4.9887,-4.9886,-4.9886,0,-4.9206,-4.9234,-4.9331,-4.939,-4.9407,-4.9467,-4.9518,-4.9571,-4.9595,-4.9672,-4.9691,-4.9729,-4.9801,-4.9827,-4.9914,-4.9925,-5.0025,-5.0023,-5.0007,-5.0008,-5.0063,-5.0057,-5.0237,-5.0261,-5.0118,-5.0119,-5.012,0,-4.9281,-4.934,-4.9405,-4.9446,-4.9478,-4.9544,-4.9586,-4.9608,-4.9652,-4.9719,-4.9764,-4.9835,-4.9893,-5.0007,-5.0042,-5.0109,-5.0108,-5.0166,-5.0118,-5.0112,-5.0109,-5.0105,-5.0111,-5.0175,-5.0176,-5.0178,-5.0179,0,-4.941,-4.9421,-4.9483,-4.955,-4.96,-4.9654,-4.9706,-4.9739,-4.9768,-4.9818,-4.9891,-4.9936,-5.0024,-5.0095,-5.0163,-5.0195,-5.0192,-5.0194,-5.021,-5.0207,-5.0195,-5.0202,-5.0032,-5.0189,-5.0188,-5.0187,-5.0187,-5.0186,-4.95,-4.9552,-4.9606,-4.9675,-4.9716,-4.9765,-4.9817,-4.9849,-4.991,-4.9984,-4.9993,-5.0072,-5.0125,-5.0216,-5.0251,-5.0312,-5.0297,-5.0321,-5.0327,-5.0332,-5.0336,-5.0186,-5.0325,-5.0325,-5.0324,-5.0324,-5.0324,0,-4.963,-4.9664,-4.9727,-4.98,-4.9854,-4.9846,-4.9903,-4.9949,-5.0018,-5.0068,-5.0125,-5.0209,-5.0278,-5.0319,-5.0387,-5.0429,-5.0429,-5.0446,-5.0443,-5.0451,-5.0346,-5.0325,-5.0445,-5.0445,-5.0445,-5.0445,-5.0445,-5.0445,-4.9703,-4.9792,-4.9809,-4.9918,-4.9952,-5.0029,-5.0063,-5.0107,-5.0147,-5.0241,-5.0298,-5.0325,-5.0371,-5.0443,-5.0506,-5.0516,-5.0541,-5.056,-5.0568,-5.047,-5.0458,-5.0446,-5.0426,-5.0565,-5.0565,-5.0668,-5.0669,-5.0669]}]]